Regional Weather Roundup
Issued by NWS

Home | Current Version | Previous Version | Graphics & Text | Print | Product List | Glossary On
Versions: 1 2 3 4 5 6 7 8 9 10 11 12 13 14 15 16 17 18 19 20 21 22 23 24 25 26 27 28 29 30 31 32 33 34 35 36 37 38 39 40 41 42 43 44 45 46 47 48 49 50
000
ASUS43 KLOT 281009
RWRIL

ILLINOIS REGIONAL WEATHER ROUNDUP
NATIONAL WEATHER SERVICE CHICAGO/ROMEOVILLE IL
500 AM CDT THU JUL 28 2016

NOTE: "FAIR" INDICATES FEW OR NO CLOUDS BELOW 12,000 FEET WITH NO
SIGNIFICANT WEATHER AND/OR OBSTRUCTIONS TO VISIBILITY.

* THESE STATIONS ARE NOT UNDER NWS QUALITY CONTROL. THEY ALSO MAY NOT
  REPORT WEATHER SUCH AS PRECIPITATION OR FOG.

ILZ001-002-007-009-015-016-024-281100-
NORTHWEST ILLINOIS

CITY           SKY/WX    TMP DP  RH WIND       PRES   REMARKS
MOLINE         CLEAR     69  65  86 W5        29.88S
STERLING*      FOG       68  68 100 CALM      29.90R VSB 1/4
SAVANNA*       CLEAR     68  68  98 CALM      29.88F FOG
$$

ILZ003-004-008-010-011-017-018-281100-
NORTH CENTRAL ILLINOIS

CITY           SKY/WX    TMP DP  RH WIND       PRES   REMARKS
ROCKFORD       PTCLDY    70  65  84 CALM      29.91S
FREEPORT*      CLEAR     65  64  98 CALM      29.91F FOG
ROCHELLE*      CLOUDY    66  65  97 CALM      29.90S
DE KALB*       CLOUDY    67  67  97 CALM      29.91F
$$

ILZ005-006-012>014-019>023-281100-
NORTHEAST ILLINOIS

CITY           SKY/WX    TMP DP  RH WIND       PRES   REMARKS
CHICAGO-OHARE  PTCLDY    73  65  75 CALM      29.89S
CHICAGO-MIDWAY PTCLDY    76  66  71 CALM      29.89S
AURORA         MOCLDY    70  67  90 CALM      29.90S
LANSING*       PTCLDY    68  66  92 CALM      29.90S
JOLIET*        CLOUDY    72  70  93 CALM      29.89F
WAUKEGAN       PTCLDY    68  66  93 CALM      29.90S
DUPAGE AIRPORT MOCLDY    68  65  90 CALM      29.89F
KANKAKEE*      MOCLDY    68  67  95 CALM      29.90S FOG
WHEELING       MOCLDY    71  67  87 CALM      29.91S
MORRIS*        CLOUDY    70  68  95 CALM      29.88S FOG
ROMEOVILLE*    PTCLDY    70  67  89 CALM      29.89F
NORTHERLY ISL    N/A     73  65  75 CALM        N/A
$$

LMZ740>746-281100-
SOUTHERN LAKE MICHIGAN

STATION/POSITION SKY/WX   TEMP    WIND        PRES    VSBY  WAVE
                          AIR SEA DIR/SP/G                  HT/PER
                          (F)     (DEG/KT/KT) (MB)    (MI)  (FT/S)
SOUTHERN BUOY              74 75  350/  8/ 10 1012.0F         0
WILMETTE HARBOR            72 70  100/  4/  4   N/A           1
HARRISON CRIB              77     190/  1/  2   N/A
BURNHAM HARBOR             73      CALM  /  3   N/A
CALUMET HARBOR             73      CALM  /  1 1011.9F
BURNS HARBOR               73     210/  4/  5 1013.2S
MICHIGAN CITY              74     160/  3/  3   N/A
MICHIGAN CITY 6N           75 77  190/  4/  4   N/A           0
ST. JOSEPH                 75 77  100/  2/  6 1012.1S         1
$$

ILZ025>027-034>036-040-047-049-050-058-095>099-281100-
WEST-CENTRAL ILLINOIS

CITY           SKY/WX    TMP DP  RH WIND       PRES   REMARKS
QUINCY         CLEAR     69  68  96 N5        29.88S
GALESBURG*     CLOUDY    70  69  97 N5        29.89S
MACOMB*        PTCLDY    69  68  98 CALM      29.91R FOG
JACKSONVILLE*  MOCLDY    70  68  93 CALM      29.88R
PITTSFIELD*    CLEAR     69  68  94 NW6       29.90R
$$

ILZ028>032-037-038-041>044-048-051>054-059>061-281100-
CENTRAL ILLINOIS

CITY           SKY/WX    TMP DP  RH WIND       PRES   REMARKS
PONTIAC        CLOUDY    72  72 100 CALM      29.90S FOG
BLOOMINGTON    MOCLDY    73  69  87 CALM      29.90S
DECATUR        PTCLDY    72  69  90 CALM      29.88S
PEORIA         CLOUDY    73  72  96 NE5       29.88S
LACON*         CLOUDY    70  68  95 CALM      29.88S
LINCOLN*       PTCLDY    73  73  97 CALM      29.88R
SPRINGFIELD    FOG       74  73  97 W3        29.88R VSB 3/4
TAYLORVILLE    PTCLDY    72  72 100 MISG      29.87S FOG
$$

ILZ033-039-045-046-055>057-062-063-281100-
EAST-CENTRAL ILLINOIS

CITY           SKY/WX    TMP DP  RH WIND       PRES   REMARKS
CHAMPAIGN      MOCLDY    70  68  93 E5        29.89F
MATTOON        CLOUDY    72  70  93 CALM      29.88S
PARIS*         CLOUDY    72  72 100 CALM      29.90S
$$

ILZ079-100>102-281100-
SOUTHWEST ILLINOIS

CITY           SKY/WX    TMP DP  RH WIND       PRES   REMARKS
ALTON          PTCLDY    70  69  97 CALM      29.88S
BELLEVILLE     CLEAR     72  72 100 CALM      29.86S
CAHOKIA*       CLEAR     72  70  93 S5        29.87S
SPARTA*        CLOUDY    73  71  93 CALM      29.90R
$$

ILZ064>066-069>071-074>076-080>082-084>086-088>090-092>094-281100-
SOUTH-CENTRAL ILLINOIS

CITY           SKY/WX    TMP DP  RH WIND       PRES   REMARKS
CARBONDALE     CLOUDY    73  71  93 CALM      29.89R
CAIRO*         CLOUDY    73  73 100 CALM      29.91R
EFFINGHAM*     CLOUDY    72  72 100 E5        29.91R FOG
MARION         CLOUDY    73  73 100 SW6       29.91R
MT. VERNON     CLOUDY    73  70  88 MISG      29.89R
CENTRALIA*     CLOUDY    73  73  99 CALM      29.88R
SALEM*         CLOUDY    74  72  92 S3        29.88S
METROPOLIS*    CLOUDY    73  73  98 S3        29.92R
$$

ILZ067-068-072-073-078-083-087-091-281100-
SOUTHEAST ILLINOIS

CITY           SKY/WX    TMP DP  RH WIND       PRES   REMARKS
LAWRENCEVILLE  CLOUDY    74  74 100 S5        29.90R FOG
FLORA*         MOCLDY    73  73  97 CALM      29.89S FOG
FAIRFIELD*     CLOUDY    73  73  98 CALM      29.88S
HARRISBURG*    CLOUDY    73  73  99 S3        29.90S
ROBINSON*      CLOUDY    73  72  99 S6        29.89S FOG
CARMI*         PTCLDY    73  73 100 CALM      29.88S
$$

ABBREVIATIONS USED IN REMARKS
   TC - TEMPERATURE IN CELSIUS
  WCI - WIND CHILL INDEX
   HX - HEAT INDEX
  VSB - VISIBILITY
$$





USA.gov is the U.S. government's official web portal to all federal, state and local government web resources and services.